KF5JED-13 Weather Reports


Display with metric or nautical units.
time (UTC)temp
F
wind
direction
speed
MPH
gust
MPH
rain 1hr
in
rain 24hr
in
rain mn
in
humidity
%
barometer
mb
20260508200136 83 0 12.0 19.0 0.00 0.00 0.00 23 1011.1
20260508195633 83 351 13.0 16.0 0.00 0.00 0.00 24 1011.0
20260508195129 83 27 9.0 13.0 0.00 0.00 0.00 25 1011.0
20260508194626 82 62 7.0 14.0 0.00 0.00 0.00 26 1011.3
20260508194123 82 353 13.0 15.0 0.00 0.00 0.00 24 1011.2
20260508193620 83 351 13.0 17.0 0.00 0.00 0.00 25 1011.1
20260508193116 81 56 4.0 10.0 0.00 0.00 0.00 26 1011.3
20260508192613 81 0 12.0 16.0 0.00 0.00 0.00 25 1011.3
20260508192110 82 0 12.0 15.0 0.00 0.00 0.00 24 1011.3
20260508191607 83 82 10.0 14.0 0.00 0.00 0.00 25 1011.1
20260508191104 81 352 16.0 18.0 0.00 0.00 0.00 24 1011.2
20260508190601 81 343 10.0 11.0 0.00 0.00 0.00 25 1011.2
20260508190057 81 351 7.0 16.0 0.00 0.00 0.00 25 1011.5
20260508185554 81 328 11.0 14.0 0.00 0.00 0.00 25 1011.2
20260508185053 81 343 7.0 16.0 0.00 0.00 0.00 25 1011.3
20260508184549 81 6 5.0 18.0 0.00 0.00 0.00 25 1011.1
20260508184046 82 0 11.0 11.0 0.00 0.00 0.00 24 1011.2
20260508183542 81 346 1.0 10.0 0.00 0.00 0.00 24 1011.3
20260508183038 80 338 6.0 9.0 0.00 0.00 0.00 24 1011.3
20260508182534 81 319 6.0 12.0 0.00 0.00 0.00 25 1011.3
20260508182026 81 232 10.0 13.0 0.00 0.00 0.00 25 1011.5
20260508181521 80 233 3.0 10.0 0.00 0.00 0.00 25 1011.2
20260508181019 80 295 4.0 9.0 0.00 0.00 0.00 26 1011.8
20260508180515 79 321 9.0 13.0 0.00 0.00 0.00 26 1011.8
20260508180012 79 345 9.0 11.0 0.00 0.00 0.00 26 1011.7
20260508175508 78 276 4.0 7.0 0.00 0.00 0.00 28 1011.7
20260508175006 78 351 6.0 10.0 0.00 0.00 0.00 27 1011.8
20260508174503 79 296 9.0 11.0 0.00 0.00 0.00 27 1011.7
20260508174000 78 281 6.0 8.0 0.00 0.00 0.00 28 1012.0
20260508173457 78 217 4.0 6.0 0.00 0.00 0.00 29 1011.6
20260508172953 77 333 9.0 13.0 0.00 0.00 0.00 29 1011.9
20260508172450 77 273 2.0 8.0 0.00 0.00 0.00 29 1011.9
20260508171946 78 268 6.0 7.0 0.00 0.00 0.00 31 1012.1
20260508171443 77 302 6.0 6.0 0.00 0.00 0.00 30 1011.9
20260508170939 76 337 3.0 5.0 0.00 0.00 0.00 32 1012.1
20260508170437 76 254 5.0 9.0 0.00 0.00 0.00 33 1012.2
20260508165934 75 264 2.0 9.0 0.00 0.00 0.00 34 1012.3
20260508165432 74 226 10.0 10.0 0.00 0.00 0.00 34 1012.3
20260508164927 75 302 3.0 6.0 0.00 0.00 0.00 34 1012.3
20260508164425 74 222 9.0 12.0 0.00 0.00 0.00 34 1012.1
20260508163922 74 240 4.0 10.0 0.00 0.00 0.00 36 1012.3
20260508163420 73 305 6.0 9.0 0.00 0.00 0.00 37 1012.2
20260508162915 73 230 4.0 11.0 0.00 0.00 0.00 36 1012.6
20260508162413 73 238 4.0 8.0 0.00 0.00 0.00 36 1012.6
20260508161909 73 227 11.0 13.0 0.00 0.00 0.00 37 1012.5
20260508161407 72 274 4.0 11.0 0.00 0.00 0.00 39 1012.7
20260508160904 72 273 3.0 10.0 0.00 0.00 0.00 39 1012.5
20260508160403 72 254 5.0 14.0 0.00 0.00 0.00 39 1012.8
20260508155858 72 319 6.0 11.0 0.00 0.00 0.00 40 1012.7
20260508155356 71 251 6.0 11.0 0.00 0.00 0.00 40 1012.8
20260508154852 71 289 8.0 13.0 0.00 0.00 0.00 42 1012.7
20260508154350 71 217 6.0 12.0 0.00 0.00 0.00 42 1012.8
20260508153846 71 233 10.0 13.0 0.00 0.00 0.00 43 1012.8
20260508153344 70 281 9.0 13.0 0.00 0.00 0.00 43 1012.9
20260508152839 70 228 9.0 14.0 0.00 0.00 0.00 46 1013.0
20260508152336 69 222 8.0 14.0 0.00 0.00 0.00 48 1012.8
20260508151833 70 251 6.0 11.0 0.00 0.00 0.00 47 1012.9
20260508151330 69 226 8.0 12.0 0.00 0.00 0.00 48 1012.9
20260508150826 68 232 5.0 13.0 0.00 0.00 0.00 51 1012.8
20260508150323 67 228 6.0 14.0 0.00 0.00 0.00 53 1012.9
20260508145819 66 226 11.0 16.0 0.00 0.00 0.00 54 1012.9
20260508145315 67 221 10.0 17.0 0.00 0.00 0.00 54 1012.8
20260508144812 66 204 9.0 12.0 0.00 0.00 0.00 55 1013.1
20260508144310 65 229 9.0 14.0 0.00 0.00 0.00 57 1012.8
20260508143807 64 208 11.0 17.0 0.00 0.00 0.00 58 1012.7
20260508143304 64 214 9.0 20.0 0.00 0.00 0.00 58 1013.1
20260508142801 64 211 17.0 18.0 0.00 0.00 0.00 58 1012.8
20260508142258 65 215 14.0 17.0 0.00 0.00 0.00 57 1013.0
20260508141754 64 199 11.0 15.0 0.00 0.00 0.00 58 1013.1
20260508141251 63 218 4.0 13.0 0.00 0.00 0.00 61 1013.3
20260508140749 63 229 4.0 6.0 0.00 0.00 0.00 61 1013.5
20260508140246 62 234 3.0 5.0 0.00 0.00 0.00 62 1013.2
20260508135741 61 219 4.0 4.0 0.00 0.00 0.00 63 1013.3
20260508135238 60 296 2.0 4.0 0.00 0.00 0.00 64 1013.8
20260508134733 60 282 3.0 6.0 0.00 0.00 0.00 64 1013.7
20260508134232 59 0 1.0 5.0 0.00 0.00 0.00 65 1013.3
20260508133727 59 210 4.0 4.0 0.00 0.00 0.00 65 1013.1
20260508133225 58 292 4.0 4.0 0.00 0.00 0.00 66 1013.3
20260508132722 57 142 1.0 6.0 0.00 0.00 0.00 68 1012.9
20260508132220 57 208 2.0 4.0 0.00 0.00 0.00 69 1012.9
20260508131715 56 207 2.0 3.0 0.00 0.00 0.00 70 1012.7
20260508131212 55 215 0.0 3.0 0.00 0.00 0.00 71 1013.0
20260508130708 54 201 3.0 4.0 0.00 0.00 0.00 72 1013.0
20260508130205 54 188 4.0 4.0 0.00 0.00 0.00 73 1012.9
20260508125655 53 277 1.0 6.0 0.00 0.00 0.00 74 1013.1
20260508125152 53 199 2.0 6.0 0.00 0.00 0.00 75 1012.9
20260508124650 52 190 6.0 9.0 0.00 0.00 0.00 76 1012.5
20260508124147 52 181 6.0 8.0 0.00 0.00 0.00 77 1012.5
20260508123646 51 200 6.0 6.0 0.00 0.00 0.00 78 1012.7
20260508123143 51 202 3.0 5.0 0.00 0.00 0.00 78 1012.7
20260508122639 50 211 2.0 4.0 0.00 0.00 0.00 79 1012.6
20260508122136 50 209 5.0 6.0 0.00 0.00 0.00 80 1012.6
20260508121634 49 180 5.0 8.0 0.00 0.00 0.00 80 1012.6
20260508121132 49 201 7.0 9.0 0.00 0.00 0.00 80 1012.5
20260508120629 49 193 4.0 9.0 0.00 0.00 0.00 81 1012.5
20260508120127 48 199 6.0 6.0 0.00 0.00 0.00 82 1012.3
20260508115625 47 179 4.0 5.0 0.00 0.00 0.00 80 1012.3
20260508115121 49 194 3.0 5.0 0.00 0.00 0.00 80 1012.3
20260508114618 50 207 6.0 7.0 0.00 0.00 0.00 79 1012.3
20260508114114 50 202 5.0 8.0 0.00 0.00 0.00 78 1012.6
20260508113612 51 208 5.0 11.0 0.00 0.00 0.00 77 1012.2
20260508113110 51 202 8.0 14.0 0.00 0.00 0.00 77 1012.1
20260508112605 51 199 6.0 11.0 0.00 0.00 0.00 76 1012.2
20260508112103 52 202 10.0 11.0 0.00 0.00 0.00 76 1012.3
20260508111600 52 210 9.0 13.0 0.00 0.00 0.00 75 1012.5
20260508111057 53 195 9.0 12.0 0.00 0.00 0.00 74 1012.5
20260508110555 54 198 7.0 13.0 0.00 0.00 0.00 73 1012.6
20260508110050 54 205 9.0 12.0 0.00 0.00 0.00 73 1012.3
20260508105545 54 210 6.0 13.0 0.00 0.00 0.00 72 1012.3
20260508105043 54 217 9.0 13.0 0.00 0.00 0.00 72 1012.6
20260508104541 54 229 9.0 12.0 0.00 0.00 0.00 72 1012.5
20260508104037 54 227 10.0 12.0 0.00 0.00 0.00 72 1012.7
20260508103534 54 226 8.0 13.0 0.00 0.00 0.00 72 1012.5
20260508103031 54 223 8.0 11.0 0.00 0.00 0.00 71 1012.6
20260508102529 54 208 7.0 11.0 0.00 0.00 0.00 71 1012.6
20260508102027 54 207 7.0 11.0 0.00 0.00 0.00 71 1012.6
20260508101524 54 210 8.0 13.0 0.00 0.00 0.00 70 1012.7
20260508101021 54 207 6.0 10.0 0.00 0.00 0.00 70 1012.7
20260508100519 55 217 8.0 13.0 0.00 0.00 0.00 69 1012.6
20260508100016 55 202 12.0 13.0 0.00 0.00 0.00 69 1013.1
20260508095513 55 207 8.0 14.0 0.00 0.00 0.00 69 1012.7
20260508095009 55 206 8.0 10.0 0.00 0.00 0.00 68 1012.8
20260508094507 55 217 7.0 10.0 0.00 0.00 0.00 68 1013.2
20260508094003 55 215 11.0 12.0 0.00 0.00 0.00 68 1013.0
20260508093500 55 207 10.0 11.0 0.00 0.00 0.00 67 1013.0
20260508092958 55 210 10.0 12.0 0.00 0.00 0.00 68 1013.0
20260508092455 55 215 9.0 14.0 0.00 0.00 0.00 67 1013.1
20260508091954 55 205 9.0 13.0 0.00 0.00 0.00 66 1013.1
20260508091450 56 210 12.0 17.0 0.00 0.00 0.00 65 1013.2
20260508090948 56 207 13.0 19.0 0.00 0.00 0.00 65 1013.0
20260508090446 55 213 14.0 19.0 0.00 0.00 0.00 65 1013.1
20260508085941 55 213 14.0 18.0 0.00 0.00 0.00 65 1013.0
20260508085438 55 206 11.0 16.0 0.00 0.00 0.00 65 1012.8
20260508084935 55 198 10.0 16.0 0.00 0.00 0.00 64 1013.0
20260508084432 55 197 12.0 17.0 0.00 0.00 0.00 64 1013.1
20260508083930 55 209 14.0 17.0 0.00 0.00 0.00 63 1013.1
20260508083426 55 209 14.0 21.0 0.00 0.00 0.00 63 1013.1
20260508082921 56 212 15.0 20.0 0.00 0.00 0.00 62 1012.9
20260508082418 55 216 17.0 20.0 0.00 0.00 0.00 63 1013.1
20260508081916 54 208 12.0 14.0 0.00 0.00 0.00 64 1012.8
20260508081413 53 198 10.0 11.0 0.00 0.00 0.00 64 1012.9
20260508080909 53 193 10.0 11.0 0.00 0.00 0.00 63 1013.1
20260508080408 53 196 9.0 10.0 0.00 0.00 0.00 62 1013.2
20260508075903 54 180 7.0 11.0 0.00 0.00 0.00 61 1013.2
20260508075401 54 206 7.0 12.0 0.00 0.00 0.00 60 1013.3
20260508074859 54 193 7.0 12.0 0.00 0.00 0.00 59 1013.3
20260508074355 54 199 9.0 11.0 0.00 0.00 0.00 58 1013.3
20260508073852 54 201 7.0 11.0 0.00 0.00 0.00 57 1013.2
20260508073350 55 191 9.0 13.0 0.00 0.00 0.00 56 1013.1
20260508072846 55 212 7.0 13.0 0.00 0.00 0.00 56 1013.3
20260508072343 55 205 8.0 14.0 0.00 0.00 0.00 55 1013.2
20260508071840 55 208 10.0 11.0 0.00 0.00 0.00 54 1013.3
20260508071339 56 205 10.0 15.0 0.00 0.00 0.00 53 1013.0
20260508070837 56 203 10.0 15.0 0.00 0.00 0.00 52 1013.1
20260508070334 56 198 6.0 16.0 0.00 0.00 0.00 52 1013.2
20260508065831 55 195 11.0 13.0 0.00 0.00 0.00 53 1013.5
20260508065329 55 204 10.0 13.0 0.00 0.00 0.00 52 1013.3
20260508064827 55 196 7.0 11.0 0.00 0.00 0.00 52 1013.6
20260508064324 55 193 9.0 12.0 0.00 0.00 0.00 52 1013.5
20260508063822 55 201 6.0 11.0 0.00 0.00 0.00 52 1013.7
20260508063320 55 192 6.0 12.0 0.00 0.00 0.00 53 1013.6
20260508062817 55 188 9.0 9.0 0.00 0.00 0.00 53 1013.6
20260508062314 54 168 7.0 9.0 0.00 0.00 0.00 54 1013.6
20260508061811 54 180 5.0 6.0 0.00 0.00 0.00 54 1013.5
20260508061309 54 170 5.0 8.0 0.00 0.00 0.00 53 1013.7
20260508060804 54 164 8.0 9.0 0.00 0.00 0.00 54 1013.9
20260508060303 54 169 5.0 7.0 0.00 0.00 0.00 53 1013.8
20260508055757 55 165 4.0 7.0 0.00 0.00 0.00 52 1013.8
20260508055255 55 161 6.0 6.0 0.00 0.00 0.00 52 1013.8
20260508054751 55 166 5.0 8.0 0.00 0.00 0.00 51 1013.9
20260508054249 55 167 6.0 7.0 0.00 0.00 0.00 50 1013.9
20260508053746 56 178 6.0 8.0 0.00 0.00 0.00 49 1014.0
20260508053243 57 170 9.0 10.0 0.00 0.00 0.00 48 1014.1
20260508052740 57 188 8.0 11.0 0.00 0.00 0.00 47 1013.8
20260508052238 58 178 8.0 11.0 0.00 0.00 0.00 47 1013.9
20260508051733 58 189 6.0 9.0 0.00 0.00 0.00 46 1014.1
20260508051229 59 173 8.0 11.0 0.00 0.00 0.00 45 1014.1
20260508050726 59 172 6.0 11.0 0.00 0.00 0.00 45 1014.3
20260508050223 60 183 8.0 11.0 0.00 0.00 0.00 44 1014.2
20260508045718 60 176 8.0 11.0 0.00 0.00 0.00 44 1014.0
20260508045217 60 179 9.0 11.0 0.00 0.00 0.00 43 1014.1
20260508044714 60 171 9.0 10.0 0.00 0.00 0.00 43 1014.2
20260508044210 60 168 9.0 13.0 0.00 0.00 0.00 43 1014.2
20260508043706 60 165 9.0 9.0 0.00 0.00 0.00 43 1014.2
20260508043204 60 171 8.0 11.0 0.00 0.00 0.00 42 1014.5
20260508042700 60 155 7.0 9.0 0.00 0.00 0.00 42 1014.2
20260508042158 60 166 6.0 9.0 0.00 0.00 0.00 42 1014.2
20260508041654 60 161 7.0 10.0 0.00 0.00 0.00 41 1014.3
20260508041151 61 153 8.0 10.0 0.00 0.00 0.00 41 1014.2
20260508040647 61 160 9.0 9.0 0.00 0.00 0.00 40 1014.1
20260508040145 61 167 8.0 10.0 0.00 0.00 0.00 40 1014.2
20260508035642 61 166 7.0 10.0 0.00 0.00 0.00 40 1014.2
20260508035140 61 162 7.0 9.0 0.00 0.00 0.00 40 1014.2
20260508034636 61 173 6.0 9.0 0.00 0.00 0.00 40 1014.2
20260508034133 62 159 7.0 12.0 0.00 0.00 0.00 38 1014.0
20260508033630 63 155 11.0 13.0 0.00 0.00 0.00 38 1014.0
20260508033129 63 152 7.0 11.0 0.00 0.00 0.00 38 1014.2
20260508032625 63 154 9.0 11.0 0.00 0.00 0.00 38 1014.1
20260508032122 63 155 8.0 11.0 0.00 0.00 0.00 38 1014.1
20260508031619 63 162 8.0 10.0 0.00 0.00 0.00 37 1014.1
20260508031116 63 160 7.0 11.0 0.00 0.00 0.00 36 1013.8
20260508030612 63 150 7.0 11.0 0.00 0.00 0.00 36 1013.9
20260508030110 63 154 8.0 11.0 0.00 0.00 0.00 36 1013.9
20260508025606 62 156 6.0 8.0 0.00 0.00 0.00 37 1013.8
20260508025103 62 159 6.0 9.0 0.00 0.00 0.00 36 1013.9
20260508024559 62 153 8.0 9.0 0.00 0.00 0.00 35 1013.9
20260508024056 63 167 6.0 9.0 0.00 0.00 0.00 34 1013.6
20260508023552 64 164 6.0 11.0 0.00 0.00 0.00 33 1013.8
20260508023050 61 154 6.0 6.0 0.00 0.00 0.00 35 1013.6
20260508022546 63 151 6.0 7.0 0.00 0.00 0.00 33 1013.5
20260508022043 63 148 6.0 7.0 0.00 0.00 0.00 33 1013.7
20260508021539 61 154 5.0 6.0 0.00 0.00 0.00 34 1013.6
20260508021034 62 153 4.0 5.0 0.00 0.00 0.00 32 1013.5
20260508020532 64 156 2.0 4.0 0.00 0.00 0.00 31 1013.3
20260508020030 64 150 3.0 4.0 0.00 0.00 0.00 31 1013.6
20260508015527 63 156 3.0 4.0 0.00 0.00 0.00 31 1013.5
20260508015024 65 158 4.0 4.0 0.00 0.00 0.00 30 1013.5
20260508014521 67 148 4.0 6.0 0.00 0.00 0.00 28 1013.5
20260508014017 66 139 4.0 4.0 0.00 0.00 0.00 29 1013.2
20260508013513 68 178 3.0 4.0 0.00 0.00 0.00 29 1013.1
20260508013010 70 193 4.0 6.0 0.00 0.00 0.00 27 1013.2
20260508012507 71 200 4.0 9.0 0.00 0.00 0.00 27 1013.2
20260508012004 71 212 5.0 9.0 0.00 0.00 0.00 26 1013.1
20260508011503 72 209 7.0 9.0 0.00 0.00 0.00 26 1013.0
20260508010959 73 211 8.0 11.0 0.00 0.00 0.00 26 1013.3
20260508010451 73 211 10.0 17.0 0.00 0.00 0.00 25 1013.1
20260508005948 73 194 14.0 15.0 0.00 0.00 0.00 25 1013.2
20260508005445 74 206 12.0 16.0 0.00 0.00 0.00 25 1013.1
20260508004941 74 218 7.0 11.0 0.00 0.00 0.00 25 1013.1
20260508004437 74 229 7.0 11.0 0.00 0.00 0.00 25 1013.1
20260508003934 74 219 8.0 14.0 0.00 0.00 0.00 25 1013.1
20260508003431 75 199 14.0 18.0 0.00 0.00 0.00 24 1013.1
20260508002928 75 207 11.0 13.0 0.00 0.00 0.00 24 1013.1
20260508002425 75 223 6.0 15.0 0.00 0.00 0.00 25 1013.1
20260508001921 75 197 8.0 19.0 0.00 0.00 0.00 25 1013.1
20260508001417 75 213 9.0 15.0 0.00 0.00 0.00 25 1013.0
20260508000914 75 274 3.0 14.0 0.00 0.00 0.00 25 1013.0
20260508000412 76 212 6.0 9.0 0.00 0.00 0.00 24 1013.1
20260507235907 76 225 11.0 16.0 0.00 0.00 0.00 23 1013.1
20260507235404 75 199 6.0 17.0 0.00 0.00 0.00 24 1013.3
20260507234901 76 214 7.0 12.0 0.00 0.00 0.00 24 1013.0
20260507234359 76 235 4.0 11.0 0.00 0.00 0.00 24 1013.0
20260507233854 76 212 9.0 11.0 0.00 0.00 0.00 23 1012.9
20260507233351 76 218 13.0 20.0 0.00 0.00 0.00 23 1013.0
20260507232849 76 205 13.0 15.0 0.00 0.00 0.00 23 1012.9
20260507232345 76 213 15.0 17.0 0.00 0.00 0.00 23 1013.1
20260507231843 76 205 11.0 14.0 0.00 0.00 0.00 23 1013.2
20260507231340 77 287 2.0 6.0 0.00 0.00 0.00 24 1013.2
20260507230836 77 210 8.0 8.0 0.00 0.00 0.00 23 1013.2
20260507230333 76 235 11.0 14.0 0.00 0.00 0.00 23 1013.3
20260507225833 75 223 10.0 21.0 0.00 0.00 0.00 24 1013.3
20260507225329 76 223 9.0 9.0 0.00 0.00 0.00 24 1013.5
20260507224826 76 277 4.0 11.0 0.00 0.00 0.00 25 1013.5
20260507224323 76 275 4.0 9.0 0.00 0.00 0.00 23 1013.5
20260507223819 76 314 2.0 12.0 0.00 0.00 0.00 24 1013.5
20260507223315 76 255 7.0 11.0 0.00 0.00 0.00 24 1013.7
20260507222812 76 284 2.0 12.0 0.00 0.00 0.00 24 1013.6
20260507222308 76 241 3.0 9.0 0.00 0.00 0.00 24 1013.7
20260507221806 76 240 7.0 14.0 0.00 0.00 0.00 24 1013.7
20260507221302 75 315 3.0 7.0 0.00 0.00 0.00 24 1013.8
20260507220758 75 231 13.0 16.0 0.00 0.00 0.00 25 1013.8
20260507220257 75 212 11.0 15.0 0.00 0.00 0.00 25 1013.7
20260507215752 75 225 2.0 7.0 0.00 0.00 0.00 25 1013.8
20260507215250 75 221 9.0 14.0 0.00 0.00 0.00 25 1014.1
20260507214747 74 207 14.0 21.0 0.00 0.00 0.00 25 1014.2
20260507214244 74 253 4.0 8.0 0.00 0.00 0.00 26 1014.3
20260507213739 74 195 4.0 19.0 0.00 0.00 0.00 26 1014.5
20260507213237 73 223 12.0 19.0 0.00 0.00 0.00 26 1014.3
20260507212733 74 227 11.0 18.0 0.00 0.00 0.00 25 1014.7
20260507212230 73 221 14.0 19.0 0.00 0.00 0.00 24 1014.6
20260507211726 74 294 3.0 8.0 0.00 0.00 0.00 25 1014.7
20260507211222 73 232 5.0 12.0 0.00 0.00 0.00 26 1014.8
20260507210720 73 208 9.0 15.0 0.00 0.00 0.00 24 1015.0
20260507210216 73 286 6.0 17.0 0.00 0.00 0.00 26 1014.7
20260507205713 72 259 8.0 12.0 0.00 0.00 0.00 27 1015.0
20260507205209 72 216 6.0 15.0 0.00 0.00 0.00 27 1015.0
20260507204706 73 212 11.0 15.0 0.00 0.00 0.00 26 1015.1
20260507204204 72 231 5.0 7.0 0.00 0.00 0.00 28 1015.2
20260507203702 72 228 9.0 15.0 0.00 0.00 0.00 27 1015.7
20260507203159 72 190 10.0 12.0 0.00 0.00 0.00 29 1015.5
20260507202654 72 293 5.0 17.0 0.00 0.00 0.00 31 1015.7
20260507202150 71 321 4.0 15.0 0.00 0.00 0.00 29 1015.9
20260507201645 72 243 10.0 15.0 0.00 0.00 0.00 29 1015.8
20260507201143 71 175 6.0 13.0 0.00 0.00 0.00 32 1015.9
20260507200639 72 208 15.0 15.0 0.00 0.00 0.00 30 1016.0